{"data":{"norad_id":44910,"intl_designator":"2019-097A","name":"SHIJIAN-20 (SJ-20)","alt_names":[],"object_type":"PAYLOAD","status":"ACTIVE","operator":null,"country":"PRC","launch_date":"2019-12-27","launch_site_code":"WSC","launch_vehicle":null,"mission":null,"orbit_class":"UNKNOWN","rcs_meters":null,"size_class":null,"mass_kg":null,"dimensions":null,"purposes":["comms"],"wikipedia_slug":null,"has_3d_model":false,"image_url":null,"decayed_at":null,"tle_current":{"epoch":"2026-05-25T00:32:00.571776Z","epoch_age_seconds":66278,"freshness":"FRESH","line1":"1 44910U 19097A   26145.02222884  .00000134  00000+0  00000+0 0  9996","line2":"2 44910   4.8624  75.3422 0013052  50.1648 169.8830  1.00268272 23460","mean_motion":1.00268272,"eccentricity":0.0013052,"inclination_deg":4.8624,"raan_deg":75.3422,"arg_perigee_deg":50.1648,"mean_anomaly_deg":169.883,"bstar":0,"rev_number":2346,"period_min":1436.1472191323,"perigee_km":35732.545117787,"apogee_km":35842.614504952,"semimajor_km":42165.71681137,"source":"CELESTRAK","updated_at":"2026-05-25T13:38:14.091584Z"}}}